Everett, WA

9:15 PM PST on December 09, 2019 (GMT -0800)
Snohomish County

Weather History for KPAE - July, 2019

Change the Weather History Date:

Friday, July 26, 2019

  Actual Average Record
Temperature  
Mean Temperature 69 °F -  
Max Temperature 81 °F 74 °F 89 °F (1988)
Min Temperature 57 °F 54 °F 47 °F (1969)
Cooling Degree Days 4    
Growing Degree Days 19 (Base 50)    
Moisture  
Dew Point 56 °F    
Average Humidity 71    
Maximum Humidity 97    
Minimum Humidity 39    
Precipitation  
Precipitation 0.00 in - - ()
Sea Level Pressure  
Sea Level Pressure 30.06 in    
Wind  
Wind Speed 5 mph (NNW)    
Max Wind Speed 12 mph    
Max Gust Speed -    
Visibility 10 miles    
Events      
Averages and records for this station are not official NWS values.
T = Trace of Precipitation, MM = Missing Value Source: NWS Daily Summary

Daily Weather History Graph

Daily Weather History Graph

Search for Another Location

Airport or City:

Astronomy

Jul. 26, 2019 Rise Set
Actual Time 5:37 AM PDT 8:52 PM PDT
Civil Twilight 5:00 AM PDT 9:29 PM PDT
Nautical Twilight 4:11 AM PDT 10:18 PM PDT
Astronomical Twilight 3:09 AM PDT 11:19 PM PDT
Moon 1:03 AM PDT (7/26) 3:38 PM PDT (7/26)
Length of Visible Light 16h 29m
Length of Day
15h 14m
Waning Crescent, 33% of the Moon is Illuminated
Jul 26
Waning Crescent
Jul 31
New
Aug 7
First Quarter
Aug 15
Full
Aug 23
Last Quarter

Hourly Weather History & Observations

Time (PDT) Temp. Heat Index Dew Point Humidity Pressure Visibility Wind Dir Wind Speed Gust Speed Precip Events Conditions
12:53 AM 62.1 °F - 57.0 °F 84% 30.05 in 10.0 mi North 6.9 mph - N/A   Clear
1:53 AM 60.1 °F - 57.0 °F 90% 30.04 in 10.0 mi North 4.6 mph - N/A   Clear
2:53 AM 59.0 °F - 57.0 °F 93% 30.04 in 10.0 mi NNW 3.5 mph - N/A   Clear
3:53 AM 60.1 °F - 57.0 °F 90% 30.04 in 10.0 mi North 3.5 mph - N/A   Clear
4:36 AM 59.0 °F - 57.0 °F 93% 30.05 in 10.0 mi North 4.6 mph - N/A   Partly Cloudy
4:53 AM 57.9 °F - 57.0 °F 97% 30.04 in 10.0 mi North 5.8 mph - N/A   Partly Cloudy
5:53 AM 59.0 °F - 57.0 °F 93% 30.04 in 10.0 mi East 4.6 mph - N/A   Clear
6:53 AM 61.0 °F - 55.9 °F 83% 30.06 in 10.0 mi Calm Calm - N/A   Clear
7:53 AM 63.0 °F - 55.0 °F 75% 30.06 in 10.0 mi North 3.5 mph - N/A   Clear
8:53 AM 64.9 °F - 55.0 °F 70% 30.08 in 10.0 mi WNW 3.5 mph - N/A   Clear
9:53 AM 68.0 °F - 57.0 °F 68% 30.08 in 10.0 mi Variable 3.5 mph - N/A   Clear
10:53 AM 71.1 °F - 55.9 °F 59% 30.08 in 10.0 mi NW 6.9 mph - N/A   Clear
11:53 AM 73.9 °F - 55.0 °F 52% 30.07 in 10.0 mi Calm Calm - N/A   Clear
12:53 PM 75.0 °F - 55.9 °F 51% 30.06 in 10.0 mi Variable 5.8 mph - N/A   Clear
1:53 PM 78.1 °F - 53.1 °F 42% 30.06 in 10.0 mi WSW 10.4 mph - N/A   Clear
2:53 PM 80.1 °F 79.9 °F 53.1 °F 39% 30.05 in 10.0 mi SW 6.9 mph - N/A   Clear
3:53 PM 81.0 °F 80.7 °F 55.0 °F 41% 30.04 in 10.0 mi West 8.1 mph - N/A   Clear
4:53 PM 77.0 °F - 55.0 °F 47% 30.03 in 10.0 mi North 6.9 mph - N/A   Clear
5:53 PM 73.9 °F - 57.0 °F 55% 30.04 in 10.0 mi NNW 11.5 mph - N/A   Clear
6:53 PM 71.1 °F - 57.9 °F 63% 30.05 in 10.0 mi North 9.2 mph - N/A   Clear
7:53 PM 66.0 °F - 57.9 °F 75% 30.06 in 10.0 mi North 8.1 mph - N/A   Clear
8:53 PM 64.0 °F - 57.9 °F 80% 30.07 in 10.0 mi NNE 5.8 mph - N/A   Clear
9:53 PM 64.0 °F - 57.0 °F 78% 30.09 in 10.0 mi NNE 4.6 mph - N/A   Clear
10:53 PM 64.0 °F - 57.0 °F 78% 30.09 in 10.0 mi North 4.6 mph - N/A   Clear
11:53 PM 64.9 °F - 57.0 °F 75% 30.09 in 10.0 mi North 3.5 mph - N/A   Clear